• In Lithuania
  • List of Countries
  • For 7 days
  • Water Temperature
  • Satellite Maps
  • Weather Map
  • Weather Widgets
  • user-avatar
    Login

    Hourly Weather Kulyub

    Today, 21 October, Sunday

    Time Temperature Precipitation Wind Pressure Humidity
    00:00 +16°C° 0 mm 1 mps 725 mmHg 34%
    01:00 +15°C° 0 mm 1 mps 725 mmHg 34%
    02:00 +15°C° 0 mm 1 mps 725 mmHg 34%
    03:00 +15°C° 0 mm 1 mps 725 mmHg 34%
    04:00 +14°C° 0 mm 2 mps 725 mmHg 34%
    05:00 +14°C° 0 mm 2 mps 725 mmHg 33%
    06:00 +15°C° 0 mm 2 mps 725 mmHg 32%
    07:00 +15°C° 0 mm 2 mps 725 mmHg 30%
    08:00 +16°C° 0 mm 2 mps 725 mmHg 29%
    09:00 +18°C° 0 mm 2 mps 725 mmHg 25%
    10:00 +21°C° 0 mm 1 mps 725 mmHg 21%
    11:00 +23°C° 0 mm 1 mps 725 mmHg 17%
    12:00 +24°C° 0 mm 1 mps 725 mmHg 16%
    13:00 +25°C° 0 mm 1 mps 725 mmHg 15%
    14:00 +26°C° 0 mm 1 mps 724 mmHg 14%
    15:00 +25°C° 0 mm 1 mps 724 mmHg 16%
    16:00 +25°C° 0 mm 1 mps 724 mmHg 18%
    17:00 +24°C° 0 mm 1 mps 724 mmHg 20%
    18:00 +22°C° 0 mm 1 mps 725 mmHg 21%
    19:00 +21°C° 0 mm 1 mps 725 mmHg 23%
    20:00 +18°C° 0 mm 0 mps 725 mmHg 24%
    21:00 +19°C° 0 mm 1 mps 725 mmHg 25%
    22:00 +19°C° 0 mm 1 mps 725 mmHg 25%
    23:00 +18°C° 0 mm 1 mps 725 mmHg 25%

    Tomorrow, 22 October, Monday

    Time Temperature Precipitation Wind Pressure Humidity
    00:00 +17°C° 0 mm 2 mps 725 mmHg 25%
    01:00 +16°C° 0 mm 2 mps 725 mmHg 26%
    02:00 +16°C° 0 mm 2 mps 725 mmHg 26%
    03:00 +16°C° 0 mm 2 mps 725 mmHg 26%
    04:00 +15°C° 0 mm 2 mps 724 mmHg 26%
    05:00 +15°C° 0 mm 2 mps 724 mmHg 26%
    06:00 +16°C° 0 mm 2 mps 725 mmHg 25%
    07:00 +16°C° 0 mm 2 mps 725 mmHg 25%
    08:00 +17°C° 0 mm 2 mps 725 mmHg 24%
    09:00 +19°C° 0 mm 2 mps 725 mmHg 21%
    10:00 +22°C° 0 mm 1 mps 725 mmHg 18%
    11:00 +24°C° 0 mm 1 mps 724 mmHg 14%
    12:00 +25°C° 0 mm 1 mps 724 mmHg 14%
    13:00 +25°C° 0 mm 1 mps 724 mmHg 13%
    14:00 +26°C° 0 mm 1 mps 723 mmHg 12%
    15:00 +25°C° 0 mm 1 mps 723 mmHg 14%
    16:00 +25°C° 0 mm 1 mps 723 mmHg 17%
    17:00 +24°C° 0 mm 1 mps 723 mmHg 19%
    18:00 +22°C° 0 mm 1 mps 723 mmHg 20%
    19:00 +21°C° 0 mm 1 mps 724 mmHg 21%
    20:00 +18°C° 0 mm 0 mps 724 mmHg 22%
    21:00 +19°C° 0 mm 1 mps 724 mmHg 22%
    22:00 +19°C° 0 mm 1 mps 724 mmHg 22%
    23:00 +18°C° 0 mm 1 mps 724 mmHg 23%

    Day after tomorrow, 23 October, Tuesday

    Time Temperature Precipitation Wind Pressure Humidity
    00:00 +18°C° 0 mm 1 mps 724 mmHg 23%
    01:00 +16°C° 0 mm 2 mps 724 mmHg 23%
    02:00 +16°C° 0 mm 2 mps 724 mmHg 24%
    03:00 +16°C° 0 mm 2 mps 724 mmHg 24%
    04:00 +15°C° 0 mm 2 mps 724 mmHg 24%
    05:00 +15°C° 0 mm 2 mps 724 mmHg 24%
    06:00 +15°C° 0 mm 2 mps 724 mmHg 24%
    07:00 +16°C° 0 mm 2 mps 724 mmHg 23%
    08:00 +17°C° 0 mm 2 mps 725 mmHg 23%
    09:00 +19°C° 0 mm 2 mps 725 mmHg 19%
    10:00 +22°C° 0 mm 1 mps 725 mmHg 16%
    11:00 +24°C° 0 mm 1 mps 725 mmHg 13%
    12:00 +24°C° 0 mm 1 mps 724 mmHg 13%
    13:00 +25°C° 0 mm 1 mps 724 mmHg 12%
    14:00 +25°C° 0 mm 1 mps 723 mmHg 12%
    15:00 +25°C° 0 mm 1 mps 723 mmHg 13%
    16:00 +24°C° 0 mm 1 mps 723 mmHg 15%
    17:00 +23°C° 0 mm 1 mps 723 mmHg 17%
    18:00 +22°C° 0 mm 1 mps 723 mmHg 18%
    19:00 +21°C° 0 mm 1 mps 724 mmHg 19%
    20:00 +19°C° 0 mm 1 mps 724 mmHg 20%
    21:00 +19°C° 0 mm 1 mps 724 mmHg 20%
    22:00 +19°C° 0 mm 1 mps 724 mmHg 20%
    23:00 +17°C° 0 mm 2 mps 724 mmHg 21%

    24 October, Wednesday

    Time Temperature Precipitation Wind Pressure Humidity
    00:00 +17°C° 0 mm 2 mps 723 mmHg 21%
    01:00 +17°C° 0 mm 2 mps 723 mmHg 21%
    02:00 +16°C° 0 mm 2 mps 723 mmHg 21%
    03:00 +16°C° 0 mm 2 mps 722 mmHg 21%
    04:00 +16°C° 0 mm 2 mps 722 mmHg 21%
    05:00 +16°C° 0 mm 2 mps 722 mmHg 21%
    06:00 +16°C° 0 mm 2 mps 722 mmHg 21%
    07:00 +17°C° 0 mm 2 mps 722 mmHg 20%
    08:00 +17°C° 0 mm 2 mps 723 mmHg 20%
    09:00 +19°C° 0 mm 2 mps 723 mmHg 17%
    10:00 +21°C° 0 mm 2 mps 723 mmHg 14%
    11:00 +24°C° 0 mm 1 mps 723 mmHg 11%
    12:00 +25°C° 0 mm 1 mps 722 mmHg 11%
    13:00 +26°C° 0 mm 1 mps 722 mmHg 10%
    14:00 +26°C° 0 mm 1 mps 722 mmHg 9%
    15:00 +26°C° 0 mm 1 mps 722 mmHg 10%
    16:00 +25°C° 0 mm 1 mps 722 mmHg 12%
    17:00 +24°C° 0 mm 1 mps 722 mmHg 13%
    18:00 +23°C° 0 mm 1 mps 722 mmHg 14%
    19:00 +22°C° 0 mm 1 mps 722 mmHg 14%
    20:00 +21°C° 0 mm 1 mps 722 mmHg 15%
    21:00 +20°C° 0 mm 2 mps 722 mmHg 15%
    22:00 +19°C° 0 mm 2 mps 723 mmHg 16%
    23:00 +19°C° 0 mm 2 mps 723 mmHg 17%

    25 October, Thursday

    Time Temperature Precipitation Wind Pressure Humidity
    00:00 +18°C° 0 mm 2 mps 722 mmHg 18%
    01:00 +18°C° 0 mm 2 mps 722 mmHg 19%
    02:00 +18°C° 0 mm 2 mps 722 mmHg 20%
    03:00 +17°C° 0 mm 2 mps 722 mmHg 21%
    04:00 +17°C° 0 mm 2 mps 722 mmHg 23%
    05:00 +17°C° 0 mm 2 mps 722 mmHg 24%
    06:00 +17°C° 0 mm 2 mps 722 mmHg 25%
    07:00 +18°C° 0 mm 2 mps 722 mmHg 25%
    08:00 +18°C° 0 mm 2 mps 723 mmHg 26%
    09:00 +21°C° 0 mm 2 mps 723 mmHg 23%
    10:00 +24°C° 0 mm 2 mps 723 mmHg 19%
    11:00 +26°C° 0 mm 2 mps 723 mmHg 16%
    12:00 +27°C° 0 mm 1 mps 723 mmHg 15%
    13:00 +28°C° 0 mm 1 mps 722 mmHg 14%
    14:00 +29°C° 0 mm 1 mps 722 mmHg 12%
    15:00 +28°C° 0 mm 1 mps 722 mmHg 14%
    16:00 +27°C° 0 mm 1 mps 722 mmHg 16%
    17:00 +26°C° 0 mm 1 mps 722 mmHg 17%
    18:00 +25°C° 0 mm 1 mps 722 mmHg 18%
    19:00 +24°C° 0 mm 1 mps 722 mmHg 19%
    20:00 +22°C° 0 mm 1 mps 723 mmHg 20%
    21:00 +21°C° 0 mm 2 mps 723 mmHg 21%
    22:00 +20°C° 0 mm 2 mps 723 mmHg 21%
    23:00 +20°C° 0 mm 2 mps 723 mmHg 22%

    26 October, Friday

    Time Temperature Precipitation Wind Pressure Humidity
    00:00 +20°C° 0 mm 2 mps 723 mmHg 23%
    01:00 +19°C° 0 mm 3 mps 723 mmHg 24%
    02:00 +19°C° 0 mm 3 mps 723 mmHg 24%
    03:00 +19°C° 0 mm 3 mps 723 mmHg 25%
    04:00 +18°C° 0 mm 3 mps 723 mmHg 25%
    05:00 +18°C° 0 mm 3 mps 723 mmHg 25%
    06:00 +19°C° 0 mm 3 mps 724 mmHg 25%
    07:00 +19°C° 0 mm 3 mps 724 mmHg 25%
    08:00 +20°C° 0 mm 3 mps 724 mmHg 25%
    09:00 +23°C° 0 mm 2 mps 724 mmHg 21%
    10:00 +25°C° 0 mm 2 mps 725 mmHg 18%
    11:00 +28°C° 0 mm 2 mps 725 mmHg 15%
    12:00 +29°C° 0 mm 2 mps 724 mmHg 14%
    13:00 +30°C° 0 mm 2 mps 724 mmHg 12%
    14:00 +30°C° 0 mm 1 mps 724 mmHg 11%
    15:00 +29°C° 0 mm 1 mps 724 mmHg 13%
    16:00 +28°C° 0 mm 1 mps 724 mmHg 15%
    17:00 +28°C° 0 mm 1 mps 724 mmHg 16%
    18:00 +27°C° 0 mm 1 mps 724 mmHg 17%
    19:00 +25°C° 0 mm 2 mps 724 mmHg 18%
    20:00 +24°C° 0 mm 2 mps 725 mmHg 18%
    21:00 +24°C° 0 mm 2 mps 725 mmHg 19%
    22:00 +24°C° 0 mm 2 mps 725 mmHg 20%
    23:00 +22°C° 0 mm 3 mps 725 mmHg 20%
    Show more